Flag Weather past 2 weeks in Granby, Quebec, Canada

Now
25 °F

Chilly.


Feels Like: 15 °F
Forecast: 23 / 31 °F
Wind: 10 mph from North

Location: Frelighsburg

Current Time: Nov 27, 2014 at 3:11:00 AM

Latest Report: Nov 27, 2014 at 2:00 AM


Visibility: N/A

Pressure: 29.94 "Hg

Humidity: 98%

Dew point: 25 °F

Location of GranbyLocation

Historic Weather in Granby — Graph

°F

Granby temperature yesterday

Maximum temperature yesterday: 37 °F (at 12:00 AM)
Minimum temperature yesterday: 27 °F (at 11:00 PM)
Average temperature yesterday: 30 °F

Past Weeks' High & Low Weather Summary

 TemperatureHumidityPressure
High64 °F (Nov 24, 2:00 PM)100% (Nov 12, 8:00 AM)30.34 "Hg (Nov 12, 8:00 AM)
Low16 °F (Nov 22, 3:00 AM)39% (Nov 22, 3:00 PM)29.32 "Hg (Nov 24, 5:00 PM)
Average32 °F74%29.91 "Hg
* Reported Nov 12 2:00 AM — Nov 27 2:00 AM, Granby, Weather by CustomWeather, © 2014

Note: Actual official high and low records may vary slightly from our data, if they occured in-between our weather recording intervals... More about our weather records

Advertising

Granby weather history for previous 24 hours

 ConditionsComfort  
Time TempWeatherWind HumidityBarometerVisibility
2:00 AM
Nov 27
25 °FChilly.10 mph98%29.94 "HgN/A
1:00 AM26 °FChilly.12 mph98%29.92 "HgN/A
12:00 AM27 °FChilly.9 mph98%29.94 "HgN/A
11:00 PM
Nov 26
27 °FChilly.9 mph98%29.97 "HgN/A
10:00 PM27 °FChilly.9 mph98%29.99 "HgN/A
9:00 PM27 °FChilly.8 mph99%30.01 "HgN/A
8:00 PM27 °FChilly.8 mph99%30.03 "HgN/A
7:00 PM27 °FChilly.8 mph97%30.05 "HgN/A
6:00 PM28 °FChilly.6 mph98%30.08 "HgN/A
5:00 PM28 °FChilly.6 mph96%30.10 "HgN/A
4:00 PM28 °FChilly.5 mph93%30.13 "HgN/A
3:00 PM30 °FChilly.3 mph76%30.13 "HgN/A
2:00 PM30 °FChilly.3 mph75%30.16 "HgN/A
1:00 PM30 °FChilly.3 mph75%30.15 "HgN/A
12:00 PM30 °FChilly.3 mph73%30.18 "HgN/A
11:00 AM30 °FChilly.3 mph73%30.18 "HgN/A
10:00 AM31 °FChilly.2 mph67%30.22 "HgN/A
9:00 AM31 °FChilly.2 mph67%30.25 "HgN/A
8:00 AM31 °FChilly.1 mph72%30.22 "HgN/A
7:00 AM33 °FChilly.5 mph64%30.20 "HgN/A
6:00 AM31 °FChilly.1 mph73%30.20 "HgN/A
5:00 AM33 °FChilly.3 mph66%30.19 "HgN/A
4:00 AM33 °FChilly.5 mph63%30.19 "HgN/A
3:00 AM33 °FChilly.3 mph64%30.17 "HgN/A
Weather by CustomWeather, © 2014

See weather overviewHow to use our weather pages